Chickamauga Observed Data For Previous 48 Hours

Caption
Day and Hour Reservoir Elevation (behind dam)* Tailwater Elevation (below dam)* Average Hourly Discharge*
1/16/2019 2 AM EST 677.63 643.17 89,760
1/16/2019 3 AM EST 677.63 643.17 89,636
1/16/2019 4 AM EST 677.62 643.20 89,705
1/16/2019 5 AM EST 677.61 643.18 89,659
1/16/2019 6 AM EST 677.60 643.19 89,680
1/16/2019 7 AM EST 677.60 643.20 89,574
1/16/2019 8 AM EST 677.61 643.20 89,676
1/16/2019 9 AM EST 677.60 643.22 89,502
1/16/2019 10 AM EST 677.58 643.23 89,589
1/16/2019 11 AM EST 677.58 643.23 89,501
1/16/2019 12 PM EST 677.57 643.23 89,545
1/16/2019 1 PM EST 677.55 643.19 89,561
1/16/2019 2 PM EST 677.54 643.19 89,661
1/16/2019 3 PM EST 677.52 643.17 89,529
1/16/2019 4 PM EST 677.51 643.12 89,562
1/16/2019 5 PM EST 677.52 643.07 89,534
1/16/2019 6 PM EST 677.52 643.05 89,639
1/16/2019 7 PM EST 677.50 643.03 89,513
1/16/2019 8 PM EST 677.47 643.02 89,554
1/16/2019 9 PM EST 677.47 643.01 89,415
1/16/2019 10 PM EST 677.47 643.03 89,496
1/16/2019 11 PM EST 677.44 643.04 89,366
1/17/2019 12 AM EST 677.44 643.05 89,428
1/17/2019 1 AM EST 677.44 643.03 89,367
1/17/2019 2 AM EST 677.43 643.03 89,412
1/17/2019 3 AM EST 677.43 643.01 89,332
1/17/2019 4 AM EST 677.40 643.04 89,369
1/17/2019 5 AM EST 677.39 643.02 89,264
1/17/2019 6 AM EST 677.39 642.98 89,182
1/17/2019 7 AM EST 677.37 642.98 89,101
1/17/2019 8 AM EST 677.37 642.96 89,178
1/17/2019 9 AM EST 677.36 642.96 89,071
1/17/2019 10 AM EST 677.36 642.98 89,136
1/17/2019 11 AM EST 677.34 642.97 88,955
1/17/2019 12 PM EST 677.33 642.97 89,084
1/17/2019 1 PM EST 677.29 643.00 88,959
1/17/2019 2 PM EST 677.30 642.94 88,935
1/17/2019 3 PM EST 677.28 642.92 88,957
1/17/2019 4 PM EST 677.21 642.92 88,780
1/17/2019 5 PM EST 677.25 642.92 88,847
1/17/2019 6 PM EST 677.26 642.92 88,818
1/17/2019 7 PM EST 677.24 642.92 88,896
1/17/2019 8 PM EST 677.26 642.91 88,773
1/17/2019 9 PM EST 677.27 642.95 88,864
1/17/2019 10 PM EST 677.26 642.92 88,801
1/17/2019 11 PM EST 677.25 642.92 88,880
1/18/2019 12 AM EST 677.26 642.91 88,784

Elevations are in feet above sea level. Discharges are in cubic feet per second and are reported at the end of the hour.